Port Huron, MI

11:54 PM EDT on June 22, 2017 (GMT -0400)
Saint Clair County International

Weather History for KPHN - November, 2012

Change the Weather History Date:

Sunday, November 18, 2012

  Actual Average (KMTC) Record (KMTC)
Temperature  
Mean Temperature 40 °F -  
Max Temperature 53 °F 46 °F 68 °F (2016)
Min Temperature 28 °F 32 °F 12 °F (1959)
Degree Days  
Heating Degree Days 24    
Moisture  
Dew Point 36 °F    
Average Humidity 90    
Maximum Humidity 100    
Minimum Humidity 54    
Precipitation  
Precipitation 0.00 in - - ()
Sea Level Pressure  
Sea Level Pressure 30.51 in    
Wind  
Wind Speed 2 mph (ESE)    
Max Wind Speed 9 mph    
Max Gust Speed -    
Visibility 4 miles    
Events Fog , Snow    
Averages and records for this station are not official NWS values.
T = Trace of Precipitation, MM = Missing Value Source: NWS Daily Summary

Daily Weather History Graph

Daily Weather History Graph

Search for Another Location

Airport or City:

Trip Planner

Search our weather history database for the weather conditions in past years. The results will help you decide how hot, cold, wet, or windy it might be!

Date:

Astronomy

Nov. 18, 2012 Rise Set
Actual Time 7:26 AM EST 5:03 PM EST
Civil Twilight 6:55 AM EST 5:34 PM EST
Nautical Twilight 6:21 AM EST 6:09 PM EST
Astronomical Twilight 5:47 AM EST 6:42 PM EST
Moon 11:51 AM EST (11/18) 10:24 PM EST (11/18)
Length of Visible Light 10h 38m
Length of Day
9h 37m
Waxing Crescent, 30% of the Moon is Illuminated
Nov 18
Waxing Crescent
Nov 20
First Quarter
Nov 28
Full
Dec 6
Last Quarter
Dec 13
New

Hourly Weather History & Observations

Time (EST) Temp. Windchill Dew Point Humidity Pressure Visibility Wind Dir Wind Speed Gust Speed Precip Events Conditions
12:16 AM 28.4 °F - 28.4 °F 100% 30.57 in 0.5 mi Calm Calm - N/A Fog Light Freezing Fog
12:36 AM 30.2 °F - 28.4 °F 93% 30.57 in 2.0 mi Calm Calm - N/A   Clear
12:56 AM 30.2 °F - 28.4 °F 93% 30.56 in 3.0 mi Calm Calm - N/A   Scattered Clouds
1:16 AM 33.8 °F - 32.0 °F 93% 30.55 in 0.2 mi Calm Calm - N/A Fog Fog
1:36 AM 30.2 °F - 30.2 °F 100% 30.55 in 0.2 mi Calm Calm - N/A Fog Light Freezing Fog
1:56 AM 30.2 °F - 28.4 °F 93% 30.55 in 0.2 mi Calm Calm - N/A Fog Light Freezing Fog
2:16 AM 30.2 °F - 30.2 °F 100% 30.56 in 0.2 mi Calm Calm - N/A Fog Light Freezing Fog
2:36 AM 32.0 °F - 32.0 °F 100% 30.56 in 0.2 mi Calm Calm - N/A Fog Fog
2:56 AM 33.8 °F - 33.8 °F 100% 30.56 in 0.2 mi Calm Calm - N/A Fog Fog
3:16 AM 37.4 °F 33.8 °F 37.4 °F 100% 30.55 in 0.2 mi East 4.6 mph - N/A Fog Fog
3:36 AM 37.4 °F 33.8 °F 37.4 °F 100% 30.55 in 0.2 mi ESE 4.6 mph - N/A Fog Fog
3:56 AM 37.4 °F 34.9 °F 37.4 °F 100% 30.54 in 0.2 mi ESE 3.5 mph - N/A Fog Fog
4:16 AM 37.4 °F 33.8 °F 37.4 °F 100% 30.54 in 0.2 mi ESE 4.6 mph - N/A Fog Fog
4:36 AM 37.4 °F 33.8 °F 37.4 °F 100% 30.54 in 0.2 mi SE 4.6 mph - N/A   Overcast
4:56 AM 37.4 °F 32.8 °F 37.4 °F 100% 30.54 in 0.2 mi ESE 5.8 mph - N/A Snow Light Snow
5:16 AM 37.4 °F 33.8 °F 37.4 °F 100% 30.54 in 0.2 mi SE 4.6 mph - N/A Snow Light Snow
5:36 AM 37.4 °F 33.8 °F 37.4 °F 100% 30.54 in 0.2 mi SE 4.6 mph - N/A Snow Light Snow
5:56 AM 37.4 °F 33.8 °F 37.4 °F 100% 30.55 in 0.2 mi ESE 4.6 mph - N/A Snow Light Snow
6:16 AM 37.4 °F 33.8 °F 37.4 °F 100% 30.55 in 0.2 mi SSE 4.6 mph - N/A Fog Fog
6:36 AM 37.4 °F - 37.4 °F 100% 30.55 in 0.2 mi Calm Calm - N/A Fog Fog
6:56 AM 37.4 °F - 37.4 °F 100% 30.55 in 0.2 mi Calm Calm - N/A Fog Fog
7:16 AM 37.4 °F 34.9 °F 37.4 °F 100% 30.55 in 0.2 mi East 3.5 mph - N/A Fog Fog
7:36 AM 37.4 °F 34.9 °F 37.4 °F 100% 30.55 in 0.2 mi East 3.5 mph - N/A Fog Fog
7:56 AM 39.2 °F - 37.4 °F 93% 30.55 in 0.2 mi Calm Calm - N/A Fog Fog
8:16 AM 39.2 °F 37.0 °F 39.2 °F 100% 30.55 in 0.2 mi East 3.5 mph - N/A Fog Fog
8:36 AM 39.2 °F 37.0 °F 39.2 °F 100% 30.55 in 0.2 mi East 3.5 mph - N/A Fog Fog
8:56 AM 41.0 °F 38.0 °F 41.0 °F 100% 30.55 in 0.2 mi ESE 4.6 mph - N/A Fog Fog
9:16 AM 41.0 °F 37.1 °F 41.0 °F 100% 30.54 in 0.2 mi ESE 5.8 mph - N/A Fog Fog
9:36 AM 41.0 °F 37.1 °F 41.0 °F 100% 30.54 in 0.2 mi ESE 5.8 mph - N/A Fog Fog
9:56 AM 42.8 °F 41.1 °F 42.8 °F 100% 30.55 in 0.5 mi ESE 3.5 mph - N/A Fog Fog
10:16 AM 42.8 °F 41.1 °F 42.8 °F 100% 30.55 in 1.8 mi East 3.5 mph - N/A   Overcast
10:36 AM 42.8 °F - 42.8 °F 100% 30.55 in 2.0 mi Calm Calm - N/A   Overcast
10:56 AM 42.8 °F - 42.8 °F 100% 30.55 in 2.5 mi Calm Calm - N/A   Overcast
11:16 AM 44.6 °F 42.2 °F 44.6 °F 100% 30.54 in 3.0 mi East 4.6 mph - N/A   Overcast
11:36 AM 44.6 °F 43.1 °F 44.6 °F 100% 30.53 in 4.0 mi East 3.5 mph - N/A   Scattered Clouds
11:56 AM 44.6 °F 42.2 °F 44.6 °F 100% 30.52 in 5.0 mi ENE 4.6 mph - N/A   Scattered Clouds
12:16 PM 46.4 °F 45.2 °F 46.4 °F 100% 30.51 in 7.0 mi ENE 3.5 mph - N/A   Scattered Clouds
12:36 PM 48.2 °F - 48.2 °F 100% 30.50 in 7.0 mi East 5.8 mph - N/A   Clear
12:56 PM 50.0 °F - 44.6 °F 82% 30.49 in 7.0 mi ESE 8.1 mph - N/A   Clear
1:16 PM 51.8 °F - 42.8 °F 71% 30.49 in 10.0 mi ESE 6.9 mph - N/A   Clear
1:36 PM 51.8 °F - 42.8 °F 71% 30.48 in 10.0 mi ESE 5.8 mph - N/A   Clear
1:56 PM 53.6 °F - 42.8 °F 67% 30.47 in 10.0 mi ESE 6.9 mph - N/A   Clear
2:16 PM 53.6 °F - 42.8 °F 67% 30.47 in 10.0 mi East 9.2 mph - N/A   Clear
2:36 PM 53.6 °F - 41.0 °F 62% 30.47 in 10.0 mi ESE 8.1 mph - N/A   Clear
2:56 PM 53.6 °F - 41.0 °F 62% 30.46 in 10.0 mi ESE 9.2 mph - N/A   Clear
3:16 PM 53.6 °F - 39.2 °F 58% 30.46 in 10.0 mi ESE 5.8 mph - N/A   Clear
3:36 PM 53.6 °F - 39.2 °F 58% 30.46 in 10.0 mi East 8.1 mph - N/A   Clear
3:56 PM 53.6 °F - 37.4 °F 54% 30.46 in 10.0 mi SE 9.2 mph - N/A   Clear
4:16 PM 51.8 °F - 35.6 °F 54% 30.46 in 10.0 mi ESE 8.1 mph - N/A   Clear
4:36 PM 50.0 °F - 35.6 °F 58% 30.46 in 10.0 mi ESE 5.8 mph - N/A   Clear
4:56 PM 48.2 °F - 33.8 °F 58% 30.46 in 10.0 mi ESE 3.5 mph - N/A   Clear
5:16 PM 48.2 °F - 33.8 °F 58% 30.47 in 10.0 mi ESE 4.6 mph - N/A   Clear
5:36 PM 42.8 °F 41.1 °F 33.8 °F 70% 30.47 in 10.0 mi ESE 3.5 mph - N/A   Clear
5:56 PM 41.0 °F 39.0 °F 33.8 °F 76% 30.47 in 10.0 mi ESE 3.5 mph - N/A   Clear
6:16 PM 39.2 °F - 33.8 °F 81% 30.47 in 10.0 mi Calm Calm - N/A   Clear
6:36 PM 39.2 °F - 33.8 °F 81% 30.47 in 10.0 mi Calm Calm - N/A   Clear
6:56 PM 33.8 °F - 30.2 °F 87% 30.47 in 10.0 mi Calm Calm - N/A   Clear
7:16 PM 35.6 °F - 32.0 °F 87% 30.47 in 10.0 mi Calm Calm - N/A   Clear
7:36 PM 33.8 °F - 32.0 °F 93% 30.47 in 10.0 mi Calm Calm - N/A   Clear
7:56 PM 32.0 °F - 30.2 °F 93% 30.47 in 5.0 mi Calm Calm - N/A   Clear
8:16 PM 32.0 °F - 30.2 °F 93% 30.47 in 4.0 mi Calm Calm - N/A   Clear
8:36 PM 32.0 °F - 32.0 °F 100% 30.46 in 7.0 mi Calm Calm - N/A   Clear
8:56 PM 32.0 °F - 32.0 °F 100% 30.46 in 7.0 mi Calm Calm - N/A   Clear
9:16 PM 32.0 °F - 30.2 °F 93% 30.46 in 7.0 mi Calm Calm - N/A   Clear
9:36 PM 32.0 °F - 30.2 °F 93% 30.46 in 7.0 mi Calm Calm - N/A   Clear
9:56 PM 30.2 °F - 28.4 °F 93% 30.46 in 1.2 mi Calm Calm - N/A   Mist
10:16 PM 30.2 °F - 30.2 °F 100% 30.45 in 7.0 mi Calm Calm - N/A   Clear
10:36 PM 30.2 °F - 28.4 °F 93% 30.45 in 3.0 mi Calm Calm - N/A   Clear
10:56 PM 30.2 °F - 30.2 °F 100% 30.44 in 5.0 mi Calm Calm - N/A   Clear
11:16 PM 30.2 °F - 30.2 °F 100% 30.44 in 5.0 mi Calm Calm - N/A   Clear
11:36 PM 28.4 °F - 28.4 °F 100% 30.44 in 4.0 mi Calm Calm - N/A   Clear
11:56 PM 30.2 °F - 28.4 °F 93% 30.44 in 7.0 mi Calm Calm - N/A   Clear